Marrakech, Morocco

9:02 AM WEST on August 22, 2017 (GMT +0100)
Marrakech

Weather History for GMMX - March, 2012

Change the Weather History Date:

Thursday, March 22, 2012

  Actual Average Record
Temperature  
Mean Temperature 68 °F -  
Max Temperature 87 °F 74 °F 93 °F (2001)
Min Temperature 48 °F 51 °F 41 °F (2007)
Cooling Degree Days 2    
Growing Degree Days 18 (Base 50)    
Moisture  
Dew Point 26 °F    
Average Humidity 21    
Maximum Humidity 46    
Minimum Humidity 4    
Precipitation  
Precipitation 0.00 in 0.05 in - ()
Sea Level Pressure  
Sea Level Pressure 29.97 in    
Wind  
Wind Speed 6 mph ()    
Max Wind Speed 9 mph    
Max Gust Speed -    
Visibility 5.9 miles    
Events      
Averages and records for this station are not official NWS values.
T = Trace of Precipitation, MM = Missing Value Source: Averaged Metar Reports

Daily Weather History Graph

Daily Weather History Graph

Search for Another Location

Airport or City:

Trip Planner

Search our weather history database for the weather conditions in past years. The results will help you decide how hot, cold, wet, or windy it might be!

Date:

Astronomy

Mar. 22, 2012 Rise Set
Actual Time 6:32 AM WET 6:45 PM WET
Civil Twilight 6:08 AM WET 7:09 PM WET
Nautical Twilight 5:40 AM WET 7:37 PM WET
Astronomical Twilight 5:11 AM WET 8:06 PM WET
Moon 6:07 AM WET 6:52 PM WET
Length of Visible Light 13h 00m
Length of Day
12h 12m
Waning Crescent, 0% of the Moon is Illuminated
Mar 22
Waning Crescent
Mar 22
New
Mar 30
First Quarter
Apr 6
Full
Apr 13
Last Quarter

Hourly Weather History & Observations

Time (WET) Temp. Dew Point Humidity Pressure Visibility Wind Dir Wind Speed Gust Speed Precip Events Conditions
12:00 AM 58 °F 24 °F 15% 30.04 in 6 mi East 8.1 mph - -  
12:00 AM 59.0 °F 23.0 °F 25% 30.04 in 6.2 mi East 8.1 mph - N/A   Unknown
12:30 AM 59.0 °F 23.0 °F 25% 30.04 in 6.2 mi East 9.2 mph - N/A   Unknown
1:00 AM 59.0 °F 23.0 °F 25% 30.04 in 6.2 mi East 9.2 mph - N/A   Unknown
1:30 AM 57.2 °F 23.0 °F 27% 30.04 in 6.2 mi East 6.9 mph - N/A   Unknown
2:00 AM 57.2 °F 23.0 °F 27% 30.04 in 6.2 mi East 9.2 mph - N/A   Unknown
2:30 AM 57.2 °F 24.8 °F 29% 30.01 in 6.2 mi East 9.2 mph - N/A   Unknown
3:00 AM 56 °F 24 °F 17% 30.00 in 6 mi East 8.1 mph - -  
3:00 AM 57.2 °F 24.8 °F 29% 30.01 in 6.2 mi East 9.2 mph - N/A   Unknown
3:30 AM 55.4 °F 23.0 °F 29% 30.01 in 6.2 mi East 8.1 mph - N/A   Unknown
4:00 AM 55.4 °F 24.8 °F 31% 29.98 in 6.2 mi East 5.8 mph - N/A   Unknown
4:30 AM 53.6 °F 24.8 °F 33% 30.01 in 6.2 mi ENE 3.5 mph - N/A   Unknown
5:00 AM 53.6 °F 24.8 °F 33% 30.01 in 6.2 mi East 4.6 mph - N/A   Unknown
5:30 AM 50.0 °F 26.6 °F 40% 30.01 in 6.2 mi Variable 2.3 mph - N/A   Unknown
6:00 AM 49 °F 27 °F 30% 30.03 in 6 mi ESE 4.6 mph - -  
6:00 AM 48.2 °F 26.6 °F 43% 30.01 in 6.2 mi ESE 4.6 mph - N/A   Unknown
6:30 AM 50.0 °F 26.6 °F 40% 30.01 in - ESE 4.6 mph - N/A   Clear
7:00 AM 48.2 °F 28.4 °F 46% 30.01 in - East 4.6 mph - N/A   Clear
7:30 AM 51.8 °F 28.4 °F 41% 30.01 in - ENE 5.8 mph - N/A   Clear
8:00 AM 57.2 °F 32.0 °F 38% 30.01 in 5.0 mi East 4.6 mph - N/A   Unknown
8:30 AM 60.8 °F 32.0 °F 34% 30.01 in 5.6 mi East 5.8 mph - N/A   Unknown
9:00 AM 65 °F 32 °F 18% 29.99 in 6 mi East 6.9 mph - -  
9:00 AM 64.4 °F 32.0 °F 30% 30.01 in - East 6.9 mph - N/A   Clear
9:30 AM 68.0 °F 32.0 °F 26% 30.04 in - ENE 6.9 mph - N/A   Clear
10:00 AM 69.8 °F 33.8 °F 27% 30.04 in - ENE 5.8 mph - N/A   Clear
10:30 AM 73.4 °F 33.8 °F 23% 30.04 in - East 4.6 mph - N/A   Clear
11:00 AM 77.0 °F 33.8 °F 21% 30.01 in - East 4.6 mph - N/A   Clear
11:30 AM 78.8 °F 32.0 °F 18% 30.01 in - NNE 4.6 mph - N/A   Clear
12:00 PM 81 °F 26 °F 6% 29.93 in 6 mi North 4.6 mph - -   Clear
12:00 PM 80.6 °F 24.8 °F 13% 30.01 in - Variable 5.8 mph - N/A   Clear
12:30 PM 82.4 °F 23.0 °F 11% 30.01 in - NNW 4.6 mph - N/A   Clear
1:00 PM 82.4 °F 24.8 °F 12% 29.98 in - Variable 3.5 mph - N/A   Clear
1:30 PM 84.2 °F 23.0 °F 11% 29.95 in - North 5.8 mph - N/A   Clear
2:00 PM 84.2 °F 26.6 °F 12% 29.95 in - NNW 5.8 mph - N/A   Clear
2:30 PM 86.0 °F 23.0 °F 10% 29.92 in - NW 8.1 mph - N/A   Clear
3:00 PM 86 °F 23 °F 4% 29.83 in 6 mi North 5.8 mph - -   Clear
3:00 PM 86.0 °F 21.2 °F 9% 29.92 in - Variable 4.6 mph - N/A   Clear
3:30 PM 86.0 °F 21.2 °F 9% 29.92 in - North 9.2 mph - N/A   Clear
4:00 PM 87.8 °F 19.4 °F 8% 29.92 in - NW 6.9 mph - N/A   Clear
4:30 PM 86.0 °F 21.2 °F 9% 29.92 in - Variable 3.5 mph - N/A   Clear
5:00 PM 86.0 °F 23.0 °F 10% 29.92 in - NW 5.8 mph - N/A   Clear
5:30 PM 86.0 °F 23.0 °F 10% 29.89 in - WNW 4.6 mph - N/A   Clear
6:00 PM 85 °F 22 °F 4% 29.81 in 6 mi NW 3.5 mph - -   Clear
6:00 PM 86.0 °F 23.0 °F 10% 29.89 in - NW 3.5 mph - N/A   Clear
6:30 PM 84.2 °F 23.0 °F 11% 29.89 in - NE 3.5 mph - N/A   Clear
7:00 PM 80.6 °F 21.2 °F 11% 29.92 in - East 2.3 mph - N/A   Clear
7:30 PM 78.8 °F 26.6 °F 15% 29.92 in 4.3 mi Calm Calm - N/A   Unknown
8:00 PM 77.0 °F 26.6 °F 16% 29.92 in 5.6 mi East 8.1 mph - N/A   Unknown
8:30 PM 77.0 °F 28.4 °F 17% 29.92 in - ESE 8.1 mph - N/A   Clear
9:00 PM 73 °F 30 °F 11% 29.88 in 6 mi East 6.9 mph - -   Clear
9:00 PM 73.4 °F 30.2 °F 20% 29.92 in - East 5.8 mph - N/A   Clear
9:30 PM 73.4 °F 28.4 °F 19% 29.95 in - ESE 8.1 mph - N/A   Clear
10:00 PM 73.4 °F 30.2 °F 20% 29.95 in - SSE 4.6 mph - N/A   Clear
10:30 PM 69.8 °F 30.2 °F 23% 29.95 in 5.0 mi Variable 2.3 mph - N/A   Unknown
11:00 PM 68.0 °F 32.0 °F 26% 29.95 in 5.0 mi WSW 4.6 mph - N/A   Unknown
11:30 PM 66.2 °F 28.4 °F 24% 29.95 in - WSW 6.9 mph - N/A   Clear